Location: La Brionne
(46.1728°N, 1.7849°E)
Time: 08:42:03
(UTC+00:00)

Cosmos 2369 Rocket - Pass Details

Date: 16 June 2021
Orbit: 827 x 854 km, 71.0° (Epoch: 31 July)

Event Time Altitude Azimuth Distance (km) Brightness Sun altitude
Rises 23:29:42 0° 340° (NNW) 3,432 6.8 -20.2°
Reaches altitude 10° 23:32:48 10° 356° (N) 2,494 5.9 -20.3°
Maximum altitude 23:37:05 21° 45° (NE) 1,827 4.4 -20.3°
Drops below altitude 10° 23:41:20 10° 93° (E) 2,483 4.6 -20.4°
Enters shadow 23:44:19 - 109° (ESE) 3,384 5.1 -20.4°
